Simultaneous Nadir Overpasses (SNOs) Predictions

Prediction of SNOs between AQUA and METOP-B Satellite Orbit:

Table of predicted SNOs for the next 14.0 days since TLE Epoch: 12/21/2013
Index Date (AQUA) Time (AQUA) Lat,Lon (AQUA) SZA (AQUA ) Date (METOP-B) Time (METOP-B) Lat,Lon (METOP-B) SZA (METOP-B ) Distance(km) Time Diff (sec)
1 12/22/2013 21:29:45 -73.45, 32.57 83.17 12/22/2013 21:28:34 -73.35, 31.46 83.23 37.19 71
2 12/22/2013 22:19:18 73.73,-160.39 97.13 12/22/2013 22:19:06 73.71,-160.39 97.11 2.31 12
3 12/22/2013 23:08:45 -73.81, 7.08 82.79 12/22/2013 23:09:47 -73.78, 7.10 82.83 3.12 62
4 12/25/2013 17:04:04 -73.66, 98.55 82.99 12/25/2013 17:02:51 -73.62, 98.47 83.03 5.72 73
5 12/25/2013 17:53:33 73.74, -93.97 97.09 12/25/2013 17:53:28 73.72, -93.94 97.08 1.78 5
6 12/25/2013 18:43:00 -73.81, 73.50 82.83 12/25/2013 18:44:09 -73.80, 73.55 82.86 2.51 69
7 12/28/2013 12:38:19 -73.67, 164.99 83.10 12/28/2013 12:37:13 -73.68, 165.02 83.08 1.44 66
8 12/28/2013 13:27:48 73.74, -27.54 96.99 12/28/2013 13:27:51 73.73, -27.51 96.98 1.51 3
9 12/28/2013 14:17:17 -73.92, 139.71 82.83 12/28/2013 14:18:29 -73.95, 140.34 82.82 19.73 72
10 12/31/2013 08:12:33 -73.66,-128.56 83.27 12/31/2013 08:11:36 -73.68,-128.57 83.25 1.65 57
11 12/31/2013 09:02:02 73.75, 38.90 96.82 12/31/2013 09:02:14 73.74, 38.90 96.81 1.05 12
12 12/31/2013 09:51:38 -74.28,-154.67 82.62 12/31/2013 09:52:46 -74.25,-152.52 82.72 65.12 68
13 01/03/2014 03:46:45 -73.66, -62.10 83.51 01/03/2014 03:45:58 -73.67, -62.18 83.49 3.00 47
14 01/03/2014 04:36:14 73.74, 105.35 96.58 01/03/2014 04:36:36 73.73, 105.30 96.57 1.93 22




NCC Satellite Simultaneous Nadir Overpasses (SNOs) Prediction Service
